QPF
0.01 0.04 0.09 0.19 0.25 0.26 0.23 0.20 0.17 0.14 0.12 0.11 0.10 0.14 0.15 0.15 0.15 0.13 0.10 0.08 0.08 0.08 0.08 0.07 0.06 0.05 0.05 0.06 0.09 0.15 0.22 0.24 0.23 0.17 0.12 0.09 0.06 0.05 0.04 0.03 0.02 0.02 0.02 0.02
0.01 0.03 0.05 0.08 0.12 0.16 0.14 0.11 0.11 0.12 0.16 0.14 0.10 0.11 0.12 0.12 0.08 0.07 0.07 0.07 0.08 0.07 0.07 0.07 0.07 0.06 0.05 0.05 0.07 0.12 0.18 0.21 0.19 0.15 0.11 0.09 0.08 0.07 0.05 0.04 0.04 0.03 0.03 0.03
0.00 0.00 0.01 0.02 0.04 0.06 0.07 0.06 0.07 0.10 0.12 0.11 0.10 0.10 0.08 0.05 0.04 0.03 0.03 0.03 0.04 0.04 0.04 0.04 0.05 0.05 0.04 0.04 0.05 0.09 0.12 0.15 0.15 0.12 0.12 0.12 0.10 0.07 0.06 0.05 0.04 0.04 0.04 0.03
0.00 0.00 0.00 0.01 0.01 0.02 0.04 0.04 0.04 0.07 0.08 0.10 0.09 0.08 0.05 0.02 0.02 0.01 0.01 0.01 0.01 0.01 0.01 0.01 0.01 0.01 0.02 0.02 0.03 0.05 0.06 0.07 0.07 0.07 0.07 0.06 0.05 0.04 0.04 0.04 0.04 0.04 0.03 0.02
0.00 0.00 0.00 0.00 0.00 0.01 0.01 0.02 0.02 0.03 0.05 0.04 0.03 0.03 0.02 0.01 0.00 0.00 0.00 0.00 0.00 0.00 0.00 0.00 0.00 0.00 0.00 0.01 0.01 0.01 0.01 0.01 0.01 0.01 0.01 0.01 0.01 0.01 0.01 0.01 0.02 0.02 0.02 0.02
0.00 0.00 0.00 0.00 0.00 0.00 0.00 0.00 0.00 0.00 0.01 0.00 0.00 0.00 0.00 0.00 0.00 0.00 0.00 0.00 0.00 0.00 0.00 0.00 0.00 0.00 0.00 0.00 0.00 0.00 0.00 0.00 0.00 0.00 0.00 0.00 0.00 0.00 0.00 0.00 0.00 0.00 0.00 0.01
0.00 0.00 0.00 0.00 0.00 0.00 0.00 0.00 0.00 0.00 0.00 0.00 0.00 0.00 0.00 0.00 0.00 0.00 0.00 0.00 0.00 0.00 0.00 0.00 0.00 0.00 0.00 0.00 0.00 0.00 0.00 0.00 0.00 0.00 0.00 0.00 0.00 0.00 0.00 0.00 0.00 0.00 0.00 0.00
0.00 0.00 0.00 0.00 0.00 0.00 0.00 0.00 0.00 0.00 0.00 0.00 0.00 0.00 0.00 0.00 0.00 0.00 0.00 0.00 0.00 0.00 0.00 0.00 0.00 0.00 0.00 0.00 0.00 0.00 0.00 0.00 0.00 0.00 0.00 0.00 0.00 0.00 0.00 0.00 0.00 0.00 0.00 0.00
0.00 0.00 0.00 0.00 0.00 0.00 0.00 0.00 0.00 0.00 0.00 0.00 0.00 0.00 0.00 0.00 0.00 0.00 0.00 0.00 0.00 0.00 0.00 0.00 0.00 0.00 0.00 0.00 0.00 0.00 0.00 0.00 0.00 0.00 0.00 0.00 0.00 0.00 0.00 0.00 0.00 0.00 0.00 0.00
0.00 0.00 0.00 0.00 0.00 0.00 0.00 0.00 0.00 0.00 0.00 0.00 0.00 0.00 0.00 0.00 0.00 0.00 0.00 0.00 0.00 0.00 0.00 0.00 0.00 0.00 0.00 0.00 0.00 0.00 0.00 0.00 0.00 0.00 0.00 0.00 0.00 0.00 0.00 0.00 0.00 0.00 0.00 0.00
0.00 0.00 0.00 0.00 0.00 0.00 0.00 0.00 0.00 0.00 0.00 0.00 0.00 0.00 0.00 0.00 0.00 0.00 0.00 0.00 0.00 0.00 0.00 0.00 0.00 0.00 0.00 0.00 0.00 0.00 0.00 0.00 0.00 0.00 0.00 0.00 0.00 0.00 0.00 0.00 0.00 0.00 0.00 0.00
0.00 0.00 0.00 0.00 0.00 0.00 0.00 0.00 0.00 0.00 0.00 0.00 0.00 0.00 0.00 0.00 0.00 0.00 0.00 0.00 0.00 0.00 0.00 0.00 0.00 0.00 0.00 0.00 0.00 0.00 0.00 0.00 0.00 0.00 0.00 0.00 0.00 0.00 0.00 0.00 0.00 0.00 0.00 0.00
0.00 0.00 0.00 0.00 0.00 0.00 0.00 0.00 0.00 0.00 0.00 0.00 0.00 0.00 0.00 0.00 0.00 0.00 0.00 0.00 0.00 0.00 0.00 0.00 0.00 0.00 0.00 0.00 0.00 0.00 0.00 0.00 0.00 0.00 0.00 0.00 0.00 0.00 0.00 0.00 0.00 0.00 0.00 0.00
0.00 0.00 0.00 0.00 0.00 0.00 0.00 0.00 0.00 0.00 0.00 0.00 0.00 0.00 0.00 0.00 0.00 0.00 0.00 0.00 0.00 0.00 0.00 0.00 0.00 0.00 0.00 0.00 0.00 0.00 0.00 0.00 0.00 0.00 0.00 0.00 0.00 0.00 0.00 0.00 0.00 0.00 0.00 0.00
0.00 0.00 0.00 0.00 0.00 0.00 0.00 0.00 0.00 0.00 0.00 0.00 0.00 0.00 0.00 0.00 0.00 0.00 0.00 0.00 0.00 0.00 0.00 0.00 0.00 0.00 0.00 0.00 0.00 0.00 0.00 0.00 0.00 0.00 0.00 0.00 0.00 0.00 0.00 0.00 0.00 0.00 0.00 0.00
0.00 0.00 0.00 0.00 0.00 0.00 0.00 0.00 0.00 0.00 0.00 0.00 0.00 0.00 0.00 0.00 0.00 0.00 0.00 0.00 0.00 0.00 0.00 0.00 0.00 0.00 0.00 0.00 0.00 0.00 0.00 0.00 0.00 0.00 0.00 0.00 0.00 0.00 0.00 0.00 0.00 0.00 0.00 0.00
0.00 0.00 0.00 0.00 0.00 0.00 0.00 0.00 0.00 0.00 0.00 0.00 0.00 0.00 0.00 0.00 0.00 0.00 0.00 0.00 0.00 0.00 0.00 0.00 0.00 0.00 0.00 0.00 0.00 0.00 0.00 0.00 0.00 0.00 0.00 0.00 0.00 0.00 0.00 0.00 0.00 0.00 0.00 0.00
0.00 0.00 0.00 0.00 0.00 0.00 0.00 0.00 0.00 0.00 0.00 0.00 0.00 0.00 0.00 0.00 0.00 0.00 0.00 0.00 0.00 0.00 0.00 0.00 0.00 0.00 0.00 0.00 0.00 0.00 0.00 0.00 0.00 0.00 0.00 0.00 0.00 0.00 0.00 0.00 0.00 0.00 0.00 0.00
0.00 0.00 0.00 0.00 0.00 0.00 0.00 0.00 0.00 0.00 0.00 0.00 0.00 0.00 0.00 0.00 0.00 0.00 0.00 0.00 0.00 0.00 0.00 0.00 0.00 0.00 0.00 0.00 0.00 0.00 0.00 0.00 0.00 0.00 0.00 0.00 0.00 0.00 0.00 0.00 0.00 0.00 0.00 0.00
0.00 0.00 0.00 0.00 0.00 0.00 0.00 0.00 0.00 0.00 0.00 0.00 0.00 0.00 0.00 0.00 0.00 0.00 0.00 0.00 0.00 0.00 0.00 0.00 0.00 0.00 0.00 0.00 0.00 0.00 0.00 0.00 0.00 0.00 0.00 0.00 0.00 0.00 0.00 0.00 0.00 0.00 0.00 0.00
0.00 0.00 0.00 0.00 0.00 0.00 0.00 0.00 0.00 0.00 0.00 0.00 0.00 0.00 0.00 0.00 0.00 0.00 0.00 0.00 0.00 0.00 0.00 0.00 0.00 0.00 0.00 0.00 0.00 0.00 0.00 0.00 0.00 0.00 0.00 0.00 0.00 0.00 0.00 0.00 0.00 0.00 0.00 0.00
0.00 0.00 0.00 0.00 0.00 0.00 0.00 0.00 0.00 0.00 0.00 0.00 0.00 0.00 0.00 0.00 0.00 0.00 0.00 0.00 0.00 0.00 0.00 0.00 0.00 0.00 0.00 0.00 0.00 0.00 0.00 0.00 0.00 0.00 0.00 0.00 0.00 0.00 0.00 0.00 0.00 0.00 0.00 0.00
0.00 0.00 0.00 0.00 0.00 0.00 0.00 0.00 0.00 0.00 0.00 0.00 0.00 0.00 0.00 0.00 0.00 0.00 0.00 0.00 0.00 0.00 0.00 0.00 0.00 0.00 0.00 0.00 0.00 0.00 0.00 0.00 0.00 0.00 0.00 0.00 0.00 0.00 0.00 0.00 0.00 0.00 0.00 0.00
0.00 0.00 0.00 0.00 0.00 0.00 0.00 0.00 0.00 0.00 0.00 0.00 0.00 0.00 0.00 0.00 0.00 0.00 0.00 0.00 0.00 0.00 0.00 0.00 0.00 0.00 0.00 0.00 0.00 0.00 0.00 0.00 0.00 0.00 0.00 0.00 0.00 0.00 0.00 0.00 0.00 0.00 0.00 0.00
0.00 0.00 0.00 0.00 0.00 0.00 0.00 0.00 0.00 0.00 0.00 0.00 0.00 0.00 0.00 0.00 0.00 0.00 0.00 0.00 0.00 0.00 0.00 0.00 0.00 0.00 0.00 0.00 0.00 0.00 0.00 0.00 0.00 0.00 0.00 0.00 0.00 0.00 0.00 0.00 0.00 0.00 0.00 0.00
0.00 0.00 0.00 0.00 0.00 0.00 0.00 0.00 0.00 0.00 0.00 0.00 0.00 0.00 0.00 0.00 0.00 0.00 0.00 0.00 0.00 0.00 0.00 0.00 0.00 0.00 0.00 0.00 0.00 0.00 0.00 0.00 0.00 0.00 0.00 0.00 0.00 0.00 0.00 0.00 0.00 0.00 0.00 0.00
0.00 0.00 0.00 0.00 0.00 0.00 0.00 0.00 0.00 0.00 0.00 0.00 0.00 0.00 0.00 0.00 0.00 0.00 0.00 0.00 0.00 0.00 0.00 0.00 0.00 0.00 0.00 0.00 0.00 0.00 0.00 0.00 0.00 0.00 0.00 0.00 0.00 0.00 0.00 0.00 0.00 0.00 0.00 0.00
MSLP
1021.41 1021.53 1021.62 1021.69 1021.70 1021.65 1021.53 1021.32 1021.02 1020.65 1020.19 1019.69 1019.13 1018.54 1017.94 1017.34 1016.74 1016.16 1015.60 1015.07 1014.58 1014.13 1013.71 1013.33 1012.99 1012.67 1012.38 1012.10 1011.84 1011.60 1011.40 1011.24 1011.14 1011.10 1011.14 1011.24 1011.39 1011.57 1011.76 1011.94 1012.08 1012.18 1012.23 1012.26
1022.09 1022.23 1022.33 1022.38 1022.37 1022.28 1022.11 1021.86 1021.54 1021.16 1020.72 1020.24 1019.73 1019.19 1018.65 1018.09 1017.53 1016.98 1016.42 1015.89 1015.37 1014.88 1014.43 1014.01 1013.63 1013.28 1012.95 1012.66 1012.39 1012.14 1011.94 1011.77 1011.66 1011.61 1011.62 1011.68 1011.78 1011.90 1012.02 1012.11 1012.16 1012.17 1012.14 1012.09
1022.81 1022.96 1023.05 1023.07 1023.02 1022.89 1022.68 1022.40 1022.05 1021.66 1021.22 1020.76 1020.28 1019.78 1019.27 1018.75 1018.22 1017.68 1017.14 1016.60 1016.08 1015.58 1015.11 1014.68 1014.30 1013.94 1013.63 1013.34 1013.08 1012.85 1012.65 1012.48 1012.36 1012.28 1012.25 1012.26 1012.30 1012.35 1012.38 1012.38 1012.34 1012.26 1012.14 1012.00
1023.50 1023.63 1023.69 1023.67 1023.58 1023.41 1023.16 1022.84 1022.48 1022.07 1021.63 1021.17 1020.70 1020.22 1019.73 1019.23 1018.71 1018.18 1017.65 1017.13 1016.62 1016.13 1015.69 1015.28 1014.92 1014.60 1014.32 1014.06 1013.83 1013.62 1013.44 1013.27 1013.14 1013.04 1012.97 1012.93 1012.90 1012.87 1012.83 1012.75 1012.63 1012.47 1012.28 1012.07
1024.08 1024.16 1024.18 1024.12 1023.98 1023.77 1023.48 1023.14 1022.75 1022.33 1021.88 1021.42 1020.95 1020.47 1019.98 1019.49 1018.98 1018.46 1017.94 1017.44 1016.95 1016.50 1016.10 1015.74 1015.44 1015.17 1014.94 1014.74 1014.55 1014.37 1014.20 1014.05 1013.90 1013.78 1013.68 1013.59 1013.51 1013.43 1013.33 1013.20 1013.03 1012.82 1012.57 1012.31
1024.46 1024.49 1024.45 1024.34 1024.16 1023.92 1023.61 1023.25 1022.85 1022.42 1021.97 1021.50 1021.02 1020.54 1020.05 1019.55 1019.04 1018.53 1018.02 1017.54 1017.09 1016.69 1016.34 1016.04 1015.80 1015.60 1015.44 1015.30 1015.16 1015.02 1014.87 1014.73 1014.58 1014.44 1014.32 1014.20 1014.09 1013.98 1013.85 1013.70 1013.50 1013.27 1013.00 1012.71
1024.58 1024.55 1024.46 1024.31 1024.10 1023.84 1023.53 1023.17 1022.78 1022.35 1021.91 1021.44 1020.97 1020.48 1019.98 1019.47 1018.96 1018.45 1017.96 1017.50 1017.08 1016.72 1016.42 1016.19 1016.01 1015.88 1015.78 1015.70 1015.61 1015.51 1015.40 1015.27 1015.13 1014.99 1014.86 1014.73 1014.62 1014.50 1014.37 1014.22 1014.03 1013.80 1013.54 1013.24
1024.43 1024.33 1024.20 1024.03 1023.82 1023.57 1023.27 1022.94 1022.57 1022.17 1021.75 1021.30 1020.84 1020.35 1019.85 1019.34 1018.82 1018.31 1017.83 1017.38 1016.99 1016.66 1016.41 1016.22 1016.10 1016.02 1015.98 1015.94 1015.90 1015.85 1015.76 1015.66 1015.54 1015.42 1015.29 1015.18 1015.07 1014.96 1014.85 1014.72 1014.57 1014.37 1014.12 1013.83
1024.00 1023.86 1023.71 1023.54 1023.34 1023.12 1022.87 1022.59 1022.27 1021.93 1021.55 1021.14 1020.69 1020.23 1019.74 1019.23 1018.71 1018.21 1017.72 1017.28 1016.90 1016.59 1016.35 1016.19 1016.10 1016.06 1016.05 1016.06 1016.06 1016.04 1016.00 1015.93 1015.84 1015.74 1015.63 1015.54 1015.45 1015.37 1015.29 1015.20 1015.07 1014.91 1014.69 1014.42
1023.36 1023.21 1023.05 1022.90 1022.75 1022.58 1022.39 1022.18 1021.93 1021.65 1021.34 1020.98 1020.58 1020.15 1019.68 1019.19 1018.69 1018.18 1017.70 1017.25 1016.87 1016.55 1016.31 1016.15 1016.07 1016.04 1016.05 1016.09 1016.12 1016.14 1016.13 1016.10 1016.04 1015.98 1015.90 1015.84 1015.78 1015.73 1015.67 1015.61 1015.51 1015.38 1015.19 1014.94
1022.58 1022.43 1022.30 1022.19 1022.09 1021.99 1021.88 1021.75 1021.59 1021.39 1021.14 1020.86 1020.52 1020.14 1019.71 1019.25 1018.76 1018.26 1017.77 1017.31 1016.91 1016.57 1016.31 1016.13 1016.02 1015.99 1016.00 1016.05 1016.11 1016.16 1016.19 1016.20 1016.19 1016.17 1016.13 1016.09 1016.06 1016.03 1015.99 1015.94 1015.87 1015.75 1015.58 1015.35
1021.75 1021.62 1021.53 1021.48 1021.45 1021.43 1021.40 1021.34 1021.26 1021.14 1020.98 1020.76 1020.49 1020.17 1019.79 1019.36 1018.90 1018.41 1017.92 1017.45 1017.01 1016.64 1016.34 1016.12 1015.98 1015.92 1015.92 1015.97 1016.05 1016.13 1016.20 1016.26 1016.30 1016.32 1016.32 1016.31 1016.30 1016.28 1016.25 1016.21 1016.14 1016.03 1015.87 1015.65
1020.93 1020.85 1020.82 1020.84 1020.88 1020.93 1020.97 1020.99 1020.98 1020.93 1020.83 1020.69 1020.48 1020.21 1019.88 1019.49 1019.06 1018.58 1018.09 1017.60 1017.14 1016.72 1016.37 1016.10 1015.92 1015.83 1015.81 1015.86 1015.95 1016.06 1016.18 1016.29 1016.38 1016.45 1016.49 1016.51 1016.51 1016.50 1016.46 1016.41 1016.34 1016.22 1016.07 1015.87
1020.17 1020.16 1020.21 1020.30 1020.42 1020.53 1020.64 1020.71 1020.75 1020.75 1020.70 1020.60 1020.44 1020.22 1019.94 1019.59 1019.19 1018.73 1018.24 1017.74 1017.24 1016.79 1016.39 1016.07 1015.84 1015.71 1015.67 1015.71 1015.82 1015.96 1016.13 1016.29 1016.43 1016.55 1016.63 1016.68 1016.70 1016.68 1016.64 1016.58 1016.49 1016.38 1016.23 1016.04
1019.50 1019.58 1019.72 1019.89 1020.07 1020.25 1020.39 1020.51 1020.58 1020.61 1020.58 1020.51 1020.38 1020.20 1019.95 1019.63 1019.25 1018.81 1018.33 1017.82 1017.30 1016.81 1016.37 1016.00 1015.73 1015.56 1015.50 1015.54 1015.66 1015.83 1016.04 1016.26 1016.46 1016.62 1016.75 1016.83 1016.86 1016.85 1016.81 1016.74 1016.64 1016.52 1016.38 1016.23
1018.90 1019.09 1019.33 1019.58 1019.84 1020.06 1020.24 1020.38 1020.46 1020.49 1020.48 1020.41 1020.30 1020.13 1019.90 1019.61 1019.25 1018.83 1018.35 1017.83 1017.30 1016.78 1016.30 1015.90 1015.59 1015.40 1015.32 1015.35 1015.48 1015.69 1015.93 1016.20 1016.45 1016.67 1016.84 1016.95 1017.01 1017.01 1016.97 1016.89 1016.80 1016.69 1016.57 1016.46
1018.37 1018.67 1019.02 1019.36 1019.68 1019.95 1020.16 1020.31 1020.39 1020.41 1020.38 1020.31 1020.20 1020.04 1019.82 1019.54 1019.20 1018.79 1018.32 1017.80 1017.26 1016.73 1016.23 1015.79 1015.46 1015.24 1015.14 1015.17 1015.31 1015.54 1015.82 1016.13 1016.43 1016.70 1016.91 1017.06 1017.14 1017.16 1017.13 1017.06 1016.98 1016.89 1016.80 1016.73
1017.88 1018.30 1018.75 1019.19 1019.57 1019.89 1020.12 1020.27 1020.34 1020.35 1020.31 1020.22 1020.10 1019.93 1019.72 1019.46 1019.13 1018.73 1018.27 1017.77 1017.22 1016.68 1016.17 1015.72 1015.36 1015.11 1015.00 1015.02 1015.17 1015.41 1015.71 1016.05 1016.39 1016.70 1016.95 1017.14 1017.24 1017.29 1017.28 1017.23 1017.17 1017.10 1017.06 1017.04
1017.41 1017.95 1018.50 1019.02 1019.46 1019.82 1020.07 1020.22 1020.29 1020.29 1020.23 1020.13 1020.00 1019.83 1019.63 1019.38 1019.06 1018.69 1018.25 1017.75 1017.22 1016.68 1016.16 1015.70 1015.32 1015.06 1014.93 1014.94 1015.07 1015.31 1015.62 1015.98 1016.34 1016.68 1016.96 1017.18 1017.31 1017.39 1017.40 1017.38 1017.35 1017.32 1017.31 1017.33
1016.98 1017.62 1018.25 1018.82 1019.32 1019.70 1019.97 1020.13 1020.20 1020.20 1020.14 1020.04 1019.91 1019.75 1019.56 1019.32 1019.03 1018.68 1018.26 1017.79 1017.28 1016.74 1016.22 1015.75 1015.36 1015.08 1014.93 1014.91 1015.03 1015.25 1015.56 1015.91 1016.28 1016.63 1016.93 1017.17 1017.33 1017.43 1017.48 1017.49 1017.48 1017.49 1017.52 1017.58
1016.61 1017.30 1017.97 1018.59 1019.11 1019.52 1019.80 1019.98 1020.05 1020.06 1020.01 1019.92 1019.80 1019.66 1019.50 1019.29 1019.03 1018.71 1018.32 1017.88 1017.38 1016.86 1016.35 1015.87 1015.47 1015.17 1014.99 1014.94 1015.02 1015.21 1015.49 1015.83 1016.19 1016.53 1016.84 1017.10 1017.29 1017.41 1017.49 1017.53 1017.56 1017.59 1017.66 1017.76
1016.30 1017.01 1017.70 1018.32 1018.84 1019.25 1019.55 1019.73 1019.82 1019.85 1019.82 1019.76 1019.67 1019.57 1019.43 1019.26 1019.04 1018.75 1018.40 1017.98 1017.51 1017.01 1016.50 1016.03 1015.61 1015.28 1015.07 1014.98 1015.02 1015.17 1015.41 1015.72 1016.05 1016.39 1016.69 1016.96 1017.16 1017.31 1017.42 1017.50 1017.56 1017.63 1017.72 1017.85
1016.09 1016.77 1017.42 1018.02 1018.52 1018.92 1019.21 1019.40 1019.52 1019.56 1019.57 1019.55 1019.50 1019.44 1019.34 1019.21 1019.03 1018.78 1018.46 1018.08 1017.63 1017.15 1016.65 1016.17 1015.74 1015.39 1015.14 1015.01 1015.00 1015.10 1015.30 1015.56 1015.86 1016.18 1016.48 1016.74 1016.96 1017.14 1017.28 1017.39 1017.49 1017.59 1017.71 1017.87
1015.96 1016.57 1017.16 1017.70 1018.15 1018.52 1018.80 1019.00 1019.13 1019.21 1019.26 1019.28 1019.28 1019.26 1019.21 1019.12 1018.98 1018.77 1018.48 1018.12 1017.70 1017.23 1016.74 1016.26 1015.82 1015.45 1015.17 1014.99 1014.94 1014.99 1015.13 1015.35 1015.62 1015.91 1016.19 1016.46 1016.70 1016.90 1017.07 1017.22 1017.35 1017.50 1017.65 1017.84
1015.87 1016.39 1016.89 1017.35 1017.75 1018.08 1018.35 1018.54 1018.70 1018.81 1018.89 1018.96 1019.00 1019.03 1019.02 1018.97 1018.86 1018.68 1018.42 1018.09 1017.69 1017.23 1016.75 1016.27 1015.82 1015.43 1015.12 1014.92 1014.82 1014.82 1014.92 1015.09 1015.33 1015.59 1015.86 1016.13 1016.38 1016.61 1016.81 1017.00 1017.18 1017.36 1017.55 1017.77
1015.77 1016.19 1016.60 1016.98 1017.31 1017.60 1017.84 1018.04 1018.21 1018.35 1018.47 1018.58 1018.67 1018.73 1018.76 1018.74 1018.66 1018.50 1018.26 1017.95 1017.57 1017.13 1016.66 1016.19 1015.74 1015.34 1015.02 1014.78 1014.65 1014.61 1014.67 1014.81 1015.01 1015.24 1015.51 1015.77 1016.03 1016.28 1016.52 1016.74 1016.96 1017.18 1017.42 1017.67
1015.58 1015.90 1016.22 1016.52 1016.80 1017.06 1017.28 1017.48 1017.67 1017.84 1017.99 1018.14 1018.26 1018.35 1018.41 1018.42 1018.36 1018.22 1018.01 1017.72 1017.35 1016.94 1016.49 1016.03 1015.59 1015.20 1014.86 1014.62 1014.46 1014.39 1014.42 1014.52 1014.68 1014.90 1015.14 1015.40 1015.67 1015.93 1016.19 1016.45 1016.70 1016.97 1017.24 1017.53
Thickness
5578 5578 5576 5573 5575 5580 5582 5583 5583 5584 5588 5589 5594 5601 5609 5618 5627 5636 5642 5647 5651 5656 5660 5666 5671 5676 5681 5685 5687 5689 5688 5686 5685 5685 5684 5683 5682 5680 5678 5676 5675 5672 5669 5667
5583 5584 5582 5576 5575 5578 5580 5581 5583 5588 5589 5591 5597 5604 5610 5616 5622 5629 5635 5641 5645 5650 5655 5659 5664 5668 5672 5676 5678 5680 5679 5677 5677 5678 5677 5675 5675 5673 5672 5671 5670 5668 5665 5663
5580 5585 5583 5570 5570 5572 5576 5576 5579 5580 5582 5592 5599 5605 5610 5614 5618 5624 5630 5636 5640 5644 5647 5651 5654 5657 5660 5664 5667 5668 5668 5668 5668 5668 5667 5666 5665 5665 5664 5663 5662 5660 5659 5657
5581 5584 5571 5571 5580 5578 5580 5581 5583 5585 5589 5595 5600 5608 5615 5617 5618 5623 5629 5634 5637 5640 5644 5646 5649 5652 5654 5656 5658 5658 5658 5658 5658 5658 5657 5657 5656 5656 5655 5654 5653 5653 5652 5651
5580 5578 5577 5582 5585 5583 5582 5585 5589 5589 5594 5601 5607 5617 5620 5624 5624 5626 5630 5635 5637 5640 5642 5643 5645 5647 5648 5649 5650 5651 5650 5650 5650 5649 5649 5649 5648 5647 5646 5645 5645 5644 5643 5643
5584 5583 5579 5584 5593 5593 5587 5589 5595 5594 5596 5600 5604 5606 5612 5624 5626 5630 5635 5638 5640 5641 5642 5643 5643 5644 5645 5645 5645 5644 5643 5643 5642 5642 5641 5640 5639 5638 5637 5636 5635 5635 5633 5633
5587 5586 5587 5597 5600 5598 5588 5590 5597 5598 5599 5601 5601 5603 5614 5623 5628 5633 5638 5642 5643 5643 5642 5642 5642 5643 5642 5641 5640 5638 5637 5636 5635 5634 5633 5631 5629 5627 5626 5625 5624 5623 5622 5622
5589 5589 5591 5608 5605 5600 5599 5603 5603 5604 5606 5608 5610 5616 5622 5628 5632 5636 5639 5642 5643 5641 5640 5641 5640 5639 5637 5635 5634 5634 5632 5630 5628 5625 5624 5622 5619 5617 5615 5614 5613 5612 5612 5611
5602 5603 5611 5614 5614 5614 5611 5608 5610 5611 5613 5614 5617 5622 5626 5630 5634 5638 5640 5641 5642 5640 5639 5639 5638 5636 5634 5633 5632 5630 5627 5624 5621 5618 5615 5612 5610 5608 5606 5605 5604 5603 5603 5602
5611 5614 5618 5620 5620 5619 5618 5616 5617 5617 5619 5621 5622 5625 5629 5632 5635 5638 5641 5642 5642 5641 5639 5638 5638 5637 5635 5633 5631 5628 5624 5620 5617 5614 5610 5607 5604 5602 5600 5599 5597 5596 5596 5596
5617 5621 5623 5624 5624 5624 5624 5623 5623 5624 5626 5626 5627 5629 5631 5633 5636 5638 5641 5642 5642 5641 5640 5640 5640 5638 5637 5634 5630 5626 5623 5619 5616 5612 5608 5604 5601 5598 5596 5594 5592 5591 5590 5590
5626 5630 5625 5627 5631 5630 5628 5628 5628 5628 5628 5630 5631 5631 5633 5635 5638 5640 5642 5643 5644 5644 5644 5644 5642 5641 5639 5636 5632 5628 5624 5620 5616 5613 5609 5604 5600 5597 5594 5592 5590 5589 5588 5587
5645 5641 5635 5636 5636 5635 5633 5632 5631 5630 5630 5630 5632 5634 5635 5637 5640 5642 5644 5646 5646 5647 5648 5647 5646 5644 5643 5640 5636 5631 5627 5623 5619 5615 5611 5606 5601 5597 5594 5592 5591 5589 5587 5586
5652 5646 5640 5639 5637 5638 5636 5634 5633 5632 5631 5632 5633 5635 5636 5638 5641 5644 5646 5648 5650 5651 5652 5652 5651 5649 5648 5645 5640 5635 5631 5627 5623 5618 5614 5609 5605 5600 5596 5593 5590 5588 5587 5586
5656 5653 5648 5645 5642 5639 5637 5634 5632 5631 5631 5632 5634 5635 5637 5639 5641 5645 5648 5651 5653 5654 5655 5655 5655 5654 5653 5650 5645 5640 5635 5630 5626 5622 5617 5613 5608 5604 5599 5595 5592 5589 5588 5587
5661 5656 5651 5646 5642 5640 5638 5636 5632 5631 5631 5631 5633 5635 5637 5640 5642 5646 5649 5652 5652 5654 5656 5657 5658 5658 5657 5654 5649 5644 5639 5636 5631 5626 5621 5617 5612 5608 5603 5599 5595 5593 5590 5588
5664 5656 5651 5647 5644 5641 5638 5636 5633 5631 5630 5631 5632 5634 5637 5640 5643 5646 5650 5652 5654 5656 5657 5658 5659 5661 5661 5658 5653 5647 5643 5639 5635 5629 5625 5620 5616 5612 5607 5603 5599 5596 5593 5591
5677 5670 5662 5655 5649 5644 5641 5639 5636 5633 5632 5631 5632 5633 5635 5637 5639 5642 5647 5651 5655 5658 5659 5660 5662 5664 5663 5660 5656 5651 5646 5641 5636 5632 5628 5624 5620 5615 5611 5607 5604 5600 5597 5595
5676 5670 5664 5659 5654 5649 5644 5640 5638 5635 5634 5632 5631 5631 5632 5634 5636 5640 5644 5648 5652 5654 5657 5660 5663 5664 5663 5661 5658 5653 5648 5644 5639 5635 5631 5627 5622 5618 5615 5611 5608 5604 5601 5598
5674 5670 5665 5660 5656 5651 5647 5644 5641 5637 5635 5633 5631 5630 5630 5631 5633 5637 5641 5645 5648 5650 5654 5658 5662 5663 5663 5661 5659 5655 5651 5646 5642 5637 5633 5629 5625 5622 5618 5615 5611 5608 5605 5602
5672 5668 5664 5660 5656 5653 5650 5647 5642 5639 5637 5634 5631 5629 5627 5627 5630 5632 5637 5642 5648 5651 5655 5659 5661 5662 5662 5661 5660 5656 5652 5648 5644 5640 5636 5632 5628 5625 5621 5618 5615 5611 5608 5605
5669 5666 5662 5659 5655 5652 5649 5645 5642 5640 5638 5635 5632 5629 5627 5626 5627 5630 5634 5638 5644 5650 5654 5658 5660 5662 5663 5663 5659 5656 5653 5650 5647 5643 5639 5635 5632 5628 5625 5621 5618 5614 5611 5608
5665 5662 5659 5656 5653 5650 5647 5644 5642 5640 5638 5635 5633 5630 5627 5626 5625 5626 5631 5637 5642 5648 5653 5656 5660 5663 5666 5664 5660 5657 5655 5652 5648 5645 5642 5638 5635 5631 5628 5625 5621 5617 5614 5610
5659 5657 5655 5651 5648 5645 5643 5643 5641 5638 5637 5635 5633 5631 5628 5626 5626 5628 5630 5635 5640 5645 5650 5654 5659 5664 5666 5664 5661 5658 5655 5653 5650 5647 5644 5641 5637 5634 5630 5627 5623 5620 5616 5613
5654 5651 5647 5643 5640 5641 5641 5641 5638 5637 5635 5634 5633 5632 5630 5628 5626 5628 5630 5633 5638 5642 5646 5651 5656 5660 5662 5662 5661 5659 5656 5653 5651 5648 5646 5642 5639 5636 5633 5629 5626 5622 5619 5615
5645 5645 5643 5642 5642 5639 5637 5635 5634 5633 5632 5632 5632 5632 5631 5629 5628 5628 5630 5632 5635 5639 5642 5646 5650 5654 5657 5658 5659 5658 5657 5655 5652 5649 5647 5644 5641 5638 5635 5631 5628 5624 5621 5617
5634 5635 5633 5632 5632 5632 5632 5631 5631 5631 5631 5630 5630 5631 5630 5629 5629 5629 5630 5631 5632 5635 5637 5641 5645 5648 5652 5654 5656 5657 5656 5655 5653 5651 5648 5645 5643 5640 5637 5633 5630 5626 5622 5619